Retour au catalogue

CZ-4C DEB

ActifLEO
NORAD 39016·DEBRIS·🇨🇳 China

Lancé Nov 25, 2012 depuis Jiuquan Satellite Launch Center

Loading…

Prochains Passages (prochaines 24 heures)

TLE

FraisSource: Space-Track

Époque: Sep 14, 2026, 04:37 UTC

1 39016U 12066F   26257.19293530 -.00000027  00000-0  58076-4 0  9998
2 39016  63.3519  73.7601 0451039  29.0192 333.5117 13.45343750677768

Suivez CZ-4C DEB en temps réel avec AllMySat

Download on the App Store